English version Home page |
Updated on May 18, 2014 |
プロフィール
|
軌道要素Epoch = 2000 June 25.0 TT T = 2000 July 14.2917 TT Peri. = 317.7452 e = 0.666835 Node = 55.3594 2000.0 q = 1.319021 AU Incl. = 21.6197 a = 3.959066 AU n = 0.1251166 P = 7.878 years
|
星図
|
光度変化m1 = 13.5 + 5 logΔ + 15.0 log r
|
軌道要素は中野主一氏の計算によるもので、
IAUC 7499
に掲載されたものです。
|